Regional Weather Roundup
Issued by NWS Glasgow, MT

Home | Current Version | Previous Version | Text Only | Print | Product List | Glossary On
Versions: 1 2 3 4 5 6 7 8 9 10 11 12 13 14 15 16 17 18 19 20 21 22 23 24 25 26 27 28 29 30 31 32 33 34 35 36 37 38 39 40 41 42 43 44 45 46 47 48 49
000
ASUS45 KGGW 302115
RWRGGW
HOURLY REGIONAL WEATHER ROUNDUP FOR NORTHEAST MONTANA
NATIONAL WEATHER SERVICE GLASGOW MONTANA
300 PM MDT TUE JUN 30 2015

NOTE: "FAIR" INDICATES FEW OR NO CLOUDS BELOW 12,000 FEET WITH NO
SIGNIFICANT WEATHER AND/OR OBSTRUCTIONS TO VISISBILITY.

NORTHEAST MONTANA


CITY           SKY/WX    TMP DP  RH WIND       PRES   REMARKS
GLASGOW        NOT AVBL
PLENTYWOOD       N/A     76  56  49 E12G20      N/A
WOLF POINT     SUNNY     90  63  40 E16       29.81F HAZE
JORDAN           N/A     91  59  33 W6        29.83F
WINNETT          N/A     93  37  14 W18G29      N/A
SIDNEY         MOSUNNY   86  63  45 SE15      29.84F
GLENDIVE       MOSUNNY   88  61  40 W5        29.82F
MALTA            N/A     91  47  21 W12G21      N/A

FORT PECK REPORTS


CITY           SKY/WX    TMP DP  RH WIND       PRES   REMARKS
FORT PECK        N/A     90  54  29 NW6         N/A
THE PINES        N/A     92  44  19 NE7         N/A

SOUTHEAST MONTANA


CITY           SKY/WX    TMP DP  RH WIND       PRES   REMARKS
BILLINGS       MOSUNNY   94  45  18 NW18G30   29.96S
MILES CITY     MOSUNNY   96  53  23 NW15G29   29.83F
BAKER          MOSUNNY   86  65  49 VRB3      29.87F
LIVINGSTON     SUNNY     91  47  21 W23       30.04F

CENTRAL MONTANA


CITY           SKY/WX    TMP DP  RH WIND       PRES   REMARKS
HAVRE          MOSUNNY   89  53  29 NW25G35   29.90R
LEWISTOWN      NOT AVBL
GREAT FALLS    SUNNY     91  40  16 NW17G25   29.97F
CUT BANK       SUNNY     85  47  26 NW16G26   30.01R
HELENA         MOSUNNY   90  46  21 NW20G26   30.00F
BUTTE          SUNNY     84  43  23 NW8G22    30.15F
BOZEMAN        SUNNY     90  47  22 VRB3      30.05F

WESTERN MONTANA


CITY           SKY/WX    TMP DP  RH WIND       PRES   REMARKS
MISSOULA       MOSUNNY   90  46  21 NW18G24   30.01F
KALISPELL      NOT AVBL

NORTH DAKOTA


CITY           SKY/WX    TMP DP  RH WIND       PRES   REMARKS
WILLISTON      PTSUNNY   78  57  48 E16       29.89S HAZE
DICKINSON      MOSUNNY   76  63  64 SE16      29.88F
MINOT          CLOUDY    69  63  81 NE3       29.90F HAZE
BISMARCK       CLOUDY    77  59  53 SE8       29.89F

SOUTHERN SASKATCHEWAN


CITY           SKY/WX    TMP DP  RH WIND       PRES   REMARKS
REGINA         LGT RAIN  64  59  82 N3        29.94R SMOKE
MOOSE JAW      CLOUDY    66  59  77 E8        29.94S SMOKE
ESTEVAN        CLOUDY    66  61  82 CALM      29.93F THUNDER SMOKE
SWIFT CURRENT  PTSUNNY   75  57  53 E13G25    29.89S HAZE



USA.gov is the U.S. government's official web portal to all federal, state and local government web resources and services.